Regional Weather Roundup
Issued by NWS Newport/Morehead, NC

Current Version | Previous Version | Graphics & Text | Print | Product List | Glossary On
Versions: 1 2 3 4 5 6 7 8 9 10 11 12 13 14 15 16 17 18 19 20 21 22 23 24 25 26 27 28 29 30 31 32 33 34 35 36 37 38 39 40 41 42 43 44 45 46 47 48 49 50
000 ASUS42 KMHX 101824 RWRMHX WEATHER ROUNDUP FOR EASTERN NORTH CAROLINA NATIONAL WEATHER SERVICE NEWPORT/MOREHEAD CITY NC 100 PM EST SAT DEC 10 2016 NOTE: "FAIR" INDICATES FEW OR NO CLOUDS BELOW 12,000 FEET WITH NO SIGNIFICANT WEATHER AND/OR OBSTRUCTIONS TO VISIBILITY NCZ015>017-031-032-045>047-102-103-101900- NORTH COAST CITY SKY/WX TMP DP RH WIND PRES REMARKS EDENTON SUNNY 41 18 40 CALM 30.49F ELIZABETH CITY SUNNY 40 17 39 W9 30.47F KITTY HAWK CLEAR 40 24 52 W7 30.45F MANTEO SUNNY 40 20 45 NW8 30.47F $$ NCZ045>047-081-094-103-104-101900- CENTRAL COAST CITY SKY/WX TMP DP RH WIND PRES REMARKS FRISCO SUNNY 43 20 39 VRB5 30.47F $$ NCZ095-097-098-100-101-101900- SOUTHERN COAST CITY SKY/WX TMP DP RH WIND PRES REMARKS BEAUFORT SUNNY 45 19 35 NW8 30.48F CEDAR ISLAND NOT AVBL JACKSONVILLE SUNNY 42 17 36 NW7 30.50F PINEY ISLAND CLEAR N/A N/A N/A N7 30.48F WILMINGTON SUNNY 43 17 35 NW7 30.50F $$ NCZ011>013-027>030-043-044-078>080-089-090>093-098-101900- COASTAL PLAIN CITY SKY/WX TMP DP RH WIND PRES REMARKS AHOSKIE SUNNY 38 15 40 CALM 30.48F CLINTON SUNNY 40 19 42 CALM 30.51F ELIZABETHTOWN SUNNY 41 16 36 N3 30.52S GOLDSBORO SUNNY 41 14 33 NW6 30.48F GREENVILLE SUNNY 41 18 38 NW3 30.50F HAVELOCK SUNNY 43 18 36 VRB6 30.50F KENANSVILLE SUNNY 39 18 41 NW5 30.51F KINSTON SUNNY 39 16 38 NW5 30.51F NEW BERN SUNNY 42 18 37 NW8 30.50F RICHLANDS SUNNY 41 19 41 VRB5 30.50F ROCKY MOUNT SUNNY 38 16 40 SW5 30.50F WASHINGTON SUNNY 42 15 34 W5 30.50F WHITEVILLE SUNNY 42 16 35 N5 30.51F $$ AMZ130-135-150-152-154-156-158-170-250-252-270-ANZ085-086-088-633-658-670-101900- MARINE OBSERVATIONS STATION/POSITION TIME TEMP WIND PRES WAVE SWELL AIR SEA DIR/SP/G HT/PER HT/PER (UTC) (F) (DEG/KT/KT) (MB) (FT/S) (FT/S) CHESAPEAKE LIGHT NOT AVBL 64 E VA BEACH 1750 40 58 300/ 10/ 16 1030.7 4/ 6 3/ 6 DUCK 1800 38 51 330/ 6/ 10 1030.9 2 E DUCK NOT AVBL OREGON INLET 1800 40 49 320/ 9/ 12 1031.6 13E OREGON INLT NOT AVBL HATTERAS CG 1800 39 51 320/ 7/ 10 1031.4 DIAMOND BUOY 1650 42 77 330/ 12/ 17 1032.3 5/ 9 5/ 9 CAPE LOOKOUT 1800 41 310/ 8/ 10 1031.8 BEAUFORT LAB 1800 42 48 340/ 6/ 10 1031.1 30 SE NEW RVR IN 1808 44 69 360/ 10/ 14 1032.1 30 SE NEW RVR IN 1813 69 N/A 2/ 5 27 SE WRIGHTSVLE 1808 44 69 340/ 10/ 17 1032.0 5 SE WRIGHTSVLE 1808 41 60 360/ 6/ 10 1032.2 225 S CAPE HAT 1750 60 73 20/ 8/ 14 1028.3 5/ 9 5/ 9 41 SE CHARLESTON 1750 50 73 30/ 12/ 17 1031.6 3/ 5 2/ 8 $$

USA.gov is the U.S. government's official web portal to all federal, state and local government web resources and services.